Regional Weather Roundup
Issued by NWS Portland, ME

Current Version | Previous Version | Text Only | Print | Product List | Glossary Off
Versions: 1 2 3 4 5 6 7 8 9 10 11 12 13 14 15 16 17 18 19 20 21 22 23 24 25 26 27 28 29 30 31 32 33 34 35 36 37 38 39 40 41 42 43 44 45 46 47 48 49 50
000 ASUS41 KGYX 260605 RWRGYX WEATHER ROUNDUP FOR MAINE AND NEW HAMPSHIRE NATIONAL WEATHER SERVICE GRAY ME 200 AM EDT SUN MAR 26 2017 MEZ002-005-006-010-012-015-018-020-021-024-026-027-029-260700- MAINE CITY SKY/WX TMP DP RH WIND PRES REMARKS PORTLAND CLEAR 30 11 45 NW6 30.46R 6HR MIN TEMP: 29; 6HR MAX TEMP: 38; SANFORD CLEAR 16 15 96 CALM 30.46R BAR HARBOR CLEAR 28 5 37 N7 30.46R WISCASSET CLEAR 30 11 45 CALM 30.46F 6HR MIN TEMP: 27; 6HR MAX TEMP: 34; ROCKLAND CLEAR 31 10 41 N3 30.45R FRYEBURG CLEAR 20 13 74 CALM 30.45R 6HR MIN TEMP: 19; 6HR MAX TEMP: 29; LEWISTONAUBURN CLEAR 27 12 53 N8 30.44F AUGUSTA CLEAR 27 5 39 N8 30.45S 6HR MIN TEMP: 27; 6HR MAX TEMP: 36; WATERVILLE CLEAR 29 6 38 N10 30.43R WCI 20 BANGOR CLEAR 25 7 46 N10 30.46R WCI 15 6HR MIN TEMP: 24; 6HR MAX TEMP: 38; GREENVILLE N/A 18 -2 41 N7 30.38R 6HR MIN TEMP: 17; 6HR MAX TEMP: 28; MILLINOCKET PTCLDY 22 -2 35 N5 30.46R 6HR MIN TEMP: 20; 6HR MAX TEMP: 32; HOULTON CLEAR 20 1 43 N8 30.43R 6HR MIN TEMP: 20; 6HR MAX TEMP: 28; PRESQUE ISLE PTCLDY 16 1 51 N14 30.44F WCI 2 6HR MIN TEMP: 16; 6HR MAX TEMP: 27; FRENCHVILLE CLEAR 14 -6 40 NW16 30.41R WCI -2 6HR MIN TEMP: 13; 6HR MAX TEMP: 23; CARIBOU CLEAR 15 -1 49 N10 30.42S WCI 2 6HR MIN TEMP: 15; 6HR MAX TEMP: 24; $$ NHZ002-005-008-009-011-012-014-260700- NEW HAMPSHIRE CITY SKY/WX TMP DP RH WIND PRES REMARKS PORTSMOUTH PTCLDY 28 27 96 N3 30.44R ROCHESTER CLEAR 28 23 81 NW6 30.43R 6HR MIN TEMP: 27; 6HR MAX TEMP: 34; NASHUA CLOUDY 26 26 100 CALM 30.46R FOG MANCHESTER CLOUDY 29 24 82 CALM 30.44R 6HR MIN TEMP: 28; 6HR MAX TEMP: 36; CONCORD CLOUDY 23 20 88 CALM 30.45R FOG 6HR MIN TEMP: 23; 6HR MAX TEMP: 36; LACONIA CLEAR 19 16 88 CALM 30.44R PLYMOUTH FAIR 23 20 89 CALM 30.45R BERLIN CLOUDY 9 4 80 CALM 30.44S HAZE 6HR MIN TEMP: 9; 6HR MAX TEMP: 31; WHITEFIELD CLOUDY 9 5 84 CALM 30.42F 6HR MIN TEMP: 9; 6HR MAX TEMP: 30; JAFFREY CLOUDY 26 23 88 CALM 30.41R 6HR MIN TEMP: 24; 6HR MAX TEMP: 33; KEENE CLOUDY 25 24 96 CALM 30.45S FOG LEBANON CLOUDY 22 19 89 CALM 30.47R 6HR MIN TEMP: 20; 6HR MAX TEMP: 35; MT WASHINGTON PTCLDY 19 -18 17 NW32 N/A WCI 0 6HR MIN TEMP: 13; 6HR MAX TEMP: 20; $$ VTZ005-007-008-260700- VERMONT CITY SKY/WX TMP DP RH WIND PRES REMARKS ST JOHNSBURY N/A 18 15 88 MISG 30.45R MONTPELIER CLOUDY 17 15 92 SE3 30.48R BURLINGTON CLOUDY 22 18 85 CALM 30.48R $$ MAZ007-012-024-CTZ003-RIZ002-NYZ038-NYZ072-260700- SOUTHERN NEW ENGLAND AND NY CITY SKY/WX TMP DP RH WIND PRES REMARKS BOSTON CLOUDY 33 28 81 N6 30.45R WORCESTER CLEAR 31 23 72 N7 30.39S NANTUCKET MOCLDY 34 32 92 N7 30.42R PROVIDENCE CLEAR 32 27 81 N6 30.44R HARTFORD CLOUDY 32 31 96 N5 30.44R ALBANY CLOUDY 29 21 72 N5 30.46S NEW YORK CITY CLOUDY 43 33 68 NE14 30.41R $$ ANZ081-ANZ082-ANZ150-NHZ014-MEZ023>029-260700- COASTAL MARINE OBSERVATIONS STATION/POSITION TIME TEMP WIND PRES WAVE AIR SEA DIR/SP/G HT/PER (UTC) (F) (DEG/KT/KT) (MB) (FT/S) MOUNT DESERT ROC 0600 34 1030.5R MATINICUS ROCK 0500 36 360/ 19/ 20 1029.7R ISLE OF SHOALS 0500 35 360/ 12/ 13 1030.6R JEFFREYS LEDGE 0536 40 N/A 2/ 8 CASHES LEDGE BUO 0450 38 40 1029.5 3/ 9 GEORGES BANK BUO 0450 39 40 1028.0 7/ 9 $$ .............KEY.............. WCI - WIND CHILL TC - TEMPERATURE IN CELSIUS VSB - VISIBILITY IN MILES HX - HEAT INDEX FAIR- INDICATES FEW OR NO CLOUDS BELOW 12,000 FT, WITH NO SIGNIFICANT WEATHER AND/OR OBSTRUCTIONS TO VISIBILITY.

USA.gov is the U.S. government's official web portal to all federal, state and local government web resources and services.